Regional Weather Roundup
Issued by NWS

Home | Current Version | Previous Version | Text Only | Print | Product List | Glossary On
Versions: 1 2 3 4 5 6 7 8 9 10 11 12 13 14 15 16 17 18 19 20 21 22 23 24 25 26 27 28 29 30 31 32 33 34 35 36 37 38 39 40 41 42 43 44 45 46 47 48 49 50
000
ASUS44 KLIX 220210
RWRLA
LOUISIANA WEATHER ROUNDUP
NATIONAL WEATHER SERVICE NEW ORLEANS LA
900 PM CDT THU AUG 21 2014

NOTE: "FAIR" INDICATES FEW OR NO CLOUDS BELOW 12,000 FEET WITH NO
      SIGNIFICANT WEATHER AND/OR OBSTRUCTIONS TO VISIBILITY.
      SKY/WX - SKY CONDITION AND SIGNIFICANT WEATHER.
      TMP - AIR TEMPERATURE.    DP   - DEWPOINT TEMPERATURE.
      RH  - RELATIVE HUMIDITY.  PRES - PRESSURE.
      HX  - HEAT INDEX.         WCI  - WIND CHILL INDEX.

*  THESE STATIONS ARE NOT NWS OR FAA STATIONS AND ARE NOT UNDER
   NWS QUALITY CONTROL.

LAZ040-048-061>063-065-066-069-220300-
SOUTHEAST LOUISIANA

CITY           SKY/WX    TMP DP  RH WIND       PRES   REMARKS
N.O. AUDUBON   NOT AVBL
N.O. INTL ARPT CLOUDY    79  72  79 CALM      30.11S
N.O. LAKEFRONT MOCLDY    83  75  77 W10       30.12R
N.O. DOWNTOWN* FAIR      82  70  65 CALM      30.12S
SLIDELL        MOCLDY    80  74  81 CALM      30.10S
BATON ROUGE    CLOUDY    77  75  93 NE3       30.12R
BOOTHVILLE     PTCLDY    84  76  76 CALM      30.12R
BELLE CHASSE   MOCLDY    77  73  87 W3        30.11R
BOGALUSA*      FAIR      81  75  81 CALM      30.13R
GALLIANO*      NOT AVBL
NEW ROADS*     FAIR      76  73  92 E5        30.12R
GONZALES*      FAIR      78  78 100 CALM      30.11R
HAMMOND*       CLOUDY    77  72  83 CALM      30.13F
HOUMA*         CLOUDY    78  72  81 CALM      30.12S
PORT FOURCHON* CLOUDY    86  77  74 CALM      30.13R HX  97

$$

LAZ041-044-053-054-220300-
SOUTHWEST LOUISIANA

CITY           SKY/WX    TMP DP  RH WIND       PRES   REMARKS
LAKE CHARLES   MOCLDY    82  77  84 S5        30.09R
LAFAYETTE      MOCLDY    78  76  93 CALM      30.11R
PATTERSON      CLOUDY    77  75  94 CALM        N/A
SALT POINT       N/A     81  77  88 CALM      30.11R
NEW IBERIA     MOCLDY    77  75  93 E5        30.11S
CHENAULT AIRPK CLEAR     81  75  83 E5        30.10S

$$

LAZ027-028-220300-
CENTRAL LOUISIANA

CITY           SKY/WX    TMP DP  RH WIND       PRES   REMARKS
FORT POLK      CLOUDY    78  72  81 SE10      30.08S
ALEXANDRIA INT CLOUDY    75  73  93 S3        30.07F
ALEXANDRIA     CLOUDY    75  72  90 CALM      30.08F

$$

LAZ001-002-220300-
NORTHWEST LOUISIANA

CITY           SKY/WX    TMP DP  RH WIND       PRES   REMARKS
SHREVEPORT     MOCLDY    86  74  67 S13       30.03S
BARKSDALE AFB  MOCLDY    82  73  73 S10       30.04S
DTN SHREVEPORT MOCLDY    83  73  72 SE12      30.03S

$$

LAZ014-016-220300-
NORTHEAST LOUISIANA

CITY           SKY/WX    TMP DP  RH WIND       PRES   REMARKS
MONROE         MOCLDY    77  69  76 S3        30.08R
TALLULAH       CLOUDY    75  73  93 CALM      30.07F

$$



USA.gov is the U.S. government's official web portal to all federal, state and local government web resources and services.